Вернуться в каталог

SL-12 R/B

AUX MOTOR

АктивенHEO
NORAD 32398·ROCKET BODY·🇷🇺 Russia

Запущен Dec 25, 2007 с Baikonur Cosmodrome

Loading…

Ближайшие Пролёты (ближайшие 24 часа)

TLE

СвежийSource: Space-Track

Эпоха: Sep 8, 2026, 19:45 UTC

1 32398U 07065F   26251.82335191  .00000015  00000-0 -32510-4 0  9993
2 32398  65.3448 101.9428 5614335 259.4931  35.9346  4.24950518 67924

Отслеживайте SL-12 R/B в реальном времени с AllMySat

Download on the App Store